23:21
Airports
History
Links
Donate
Help me keep this website running!
Information on this page is community maintained and may be outdated or inaccurate and is intended for simulator navigating and reference only!
Always use approved charts for navigating.
EFJY
Jyvaskyla
Jyvaskyla (EFJY)
Jyväskylä, Finland (41160)
(C)
Lat/Lng:62° 23' 58.03" N / 25° 40' 41.7" E
62.399452 / 25.67825
Elevation:459'ft 140mMSL
ID / ICAO:EFJY
Runways:1
Longest:(12-30) 2591m 8501ft Asphalt
Controlled:Yes
Distance To
Airport ID:
Airport Radio Frequencies
ATIS: 134.15
Tower: 118, 119.7
Approach: 119.7, 127
Nearby VORs <50NM
Nearby NDBs
METARUpdated 08-26-16 22:50 GMT
Altimeter: 29.74
Visibility: 6.2 statute miles
Wind: 9 knots (150°)
Temp: 15°c 59°f
Humidity: 87.8%

METAR: EFJY 262250Z AUTO 15009KT 9999 OVC011 15/13 Q1007

(Powered by phpweather)
Runway 12 / 30
Dimensions:2591 x 60.1 m / 8501' x 197' ft
Surface:Asphalt
Edge Lights:High intensity
Runway 12 [A]Runway 30 [B]
Heading:133° True 313° True
Lat:
Lng:
62° 24' 27.18"N
25° 39' 36.5"E
62° 23' 28.87"N
25° 41' 46.9"E
APP Lights:CalvertMALS
Google Map
Nearby Airports
4 Mantta Sassi 41.5 NM
EFMM SW 231°
(U) Pieksamaki 43.8 NM
EFPK ESE 103°
4 Haapamaki 44.1 NM
EFHI WSW 257°
(C) Halli 47.3 NM
EFHA SW 217°
4 Viitasaari 50.1 NM
EFVI N
(U) Kivijarvi 53.4 NM
EFKV NNW 339°
(U) Alavus 67.9 NM
EFAL W 279°
VFR Chart
Flight Planning at SkyVector.com